Location: Majestic Skies Ranch
(34.0000°N, 105.9300°W)
Time: 02:27:37
(UTC-06:00)

ISS - Visible Passes

Search period start: 31 March 2015 00:00
Search period end: 10 April 2015 00:00
Orbit: 396 x 405 km, 51.6° (Epoch: 31 March)

Date Brightness Start Highest point End Pass type
(mag) Time Alt. Az. Time Alt. Az. Time Alt. Az.
31 Mar 0.3 04:17:27 10° NE 04:17:27 10° NE 04:17:32 10° NE visible
31 Mar -3.5 05:50:05 12° NW 05:53:01 83° SW 05:56:14 10° SE visible
01 Apr -2.1 04:59:49 41° NE 04:59:49 41° NE 05:02:38 10° ESE visible
02 Apr -2.4 05:42:30 28° SW 05:42:30 28° SW 05:45:08 10° SSE visible
02 Apr -3.2 20:39:05 10° SSW 20:42:13 48° SE 20:42:32 46° ESE visible
03 Apr -1.4 21:22:13 10° W 21:25:05 28° NW 21:25:20 28° NNW visible
04 Apr -2.8 20:28:13 10° WSW 20:31:27 58° NW 20:34:40 10° NE visible
05 Apr -0.3 21:12:36 10° WNW 21:14:32 14° NNW 21:16:26 10° N visible
06 Apr -1.0 20:17:56 10° W 20:20:42 25° NW 20:23:27 10° NNE visible
08 Apr -0.3 20:08:18 10° WNW 20:10:00 13° NNW 20:11:36 10° N visible
